SL-16 DEB, 22493

Orbit data source: Space-Track

SL-16 DEB, 22493 is space debris in LEO originally from a launch on Fri, 25 Dec 1992 UTC launched from the Tyuratam Missile And Space Complex (TTMTR). Debris objects in space refer to the collection of defunct objects orbiting the Earth. Examples of debris include non-operational satellites, rocket bodies, and fragments generated from explosions, collisions, or faulty payload assembly.

Loading next visibility...
Identifier
22493, 1992-093GC
Orbit
LEO
Country
Flag of CISCIS
Related business
Manufacturer
Unknown
Mission
Spacecraft
Bus & Motor
Unknown
Mass
Unknown
Launch date (UTC)
1992-12-25 (33 years ago)
Launch vehicle
Unknown
Launch site
Tyuratam Missile And Space Complex (TTMTR)
Object type
Payload
Rocket body
Debris
Shape & HBR
Unknown shape, 0.1 m
Radar Cross Section
Small (<0.1 m²)

Expand to show TLE details & history
Last TLE update: 16 hours ago

TLE from 16 hours ago
0 SL-16 DEB
1 22493U 92093GC  25298.23618532  .00003467  00000-0  80534-3 0  9992
2 22493  71.0414  19.8813 0096266 200.3283 159.4018 14.52853344736885
Epoch: 2025-10-25T05:40Z
TLE epoch observation values (Epoch: 2025-10-25T05:40:06.411Z)
Latitude
-0.00007°
Longitude
-99.01507°
Altitude
782.81 km
Speed
7.429 km/s
True Right ascension
01h 19m 31s
True Declination
0° 00' 00"
Sunlit
Object was in full shadow at epoch
Visualization orbit readout
Latitude
Unknown
Longitude
Unknown
Altitude
Unknown
Speed
Unknown
Apparent Right ascension
Unknown
Apparent Declination
Unknown
Sunlit
N/A
Visualization observer readout
Local Sidereal Time
16:52:40
Azimuth
Unknown
Elevation
Unknown
Doppler factor
Unknown
Orbital elements
Apogee altitude
782.503 km
Perigee altitude
645.953 km
Semi-major axis
7,092.365 km
Eccentricity
0.00963
Inclination
71.0414°
RAAN
19.8813°
Arg. of periapsis
200.3283°
True anomaly
159.78557°
Mean anomaly
159.4018°
Eccentric anomaly
159.59411°
Mean motion
3.63376 °/min
Orbital period
99.07 mins
BSTAR
0.00080534
Loading maneuver chart data...
Computing Atmospheric mass density...
Loading historical data...
Loading historical data...
Loading historical data...
Loading historical data...
Loading historical data...
Loading historical data...
Loading historical data...

Documentation

Showing up to 5 results
|